#datetime,building,power
2022-11-14T00:00:00,prt,25.32
2022-11-14T00:01:00,prt,24.69
2022-11-14T00:02:00,prt,23.30
2022-11-14T00:03:00,prt,27.20
2022-11-14T00:04:00,prt,26.80
2022-11-14T00:05:00,prt,26.91
2022-11-14T00:06:00,prt,27.80
2022-11-14T00:07:00,prt,34.81
2022-11-14T00:08:00,prt,29.83
2022-11-14T00:09:00,prt,27.04
2022-11-14T00:10:00,prt,24.17
2022-11-14T00:11:00,prt,25.24
2022-11-14T00:12:00,prt,24.25
2022-11-14T00:13:00,prt,24.65
2022-11-14T00:14:00,prt,27.83
2022-11-14T00:15:00,prt,27.68
2022-11-14T00:16:00,prt,27.69
2022-11-14T00:17:00,prt,28.19
2022-11-14T00:18:00,prt,23.78
2022-11-14T00:19:00,prt,23.98
2022-11-14T00:20:00,prt,22.23
2022-11-14T00:21:00,prt,21.92
2022-11-14T00:22:00,prt,21.96
2022-11-14T00:23:00,prt,29.31
2022-11-14T00:24:00,prt,28.53
2022-11-14T00:25:00,prt,22.71
2022-11-14T00:26:00,prt,28.88
2022-11-14T00:27:00,prt,24.83
2022-11-14T00:28:00,prt,25.32
2022-11-14T00:29:00,prt,26.62
2022-11-14T00:30:00,prt,28.43
2022-11-14T00:31:00,prt,28.98
2022-11-14T00:32:00,prt,29.66
2022-11-14T00:33:00,prt,25.53
2022-11-14T00:34:00,prt,25.15
2022-11-14T00:35:00,prt,28.76
2022-11-14T00:36:00,prt,23.76
2022-11-14T00:37:00,prt,25.27
2022-11-14T00:38:00,prt,22.84
2022-11-14T00:39:00,prt,22.06
2022-11-14T00:40:00,prt,21.07
2022-11-14T00:41:00,prt,23.57
2022-11-14T00:42:00,prt,27.13
2022-11-14T00:43:00,prt,25.61
2022-11-14T00:44:00,prt,23.43
2022-11-14T00:45:00,prt,22.10
2022-11-14T00:46:00,prt,22.03
2022-11-14T00:47:00,prt,22.45
2022-11-14T00:48:00,prt,22.40
2022-11-14T00:49:00,prt,22.68
2022-11-14T00:50:00,prt,22.93
2022-11-14T00:51:00,prt,23.15
2022-11-14T00:52:00,prt,23.25
2022-11-14T00:53:00,prt,23.12
2022-11-14T00:54:00,prt,23.84
2022-11-14T00:55:00,prt,24.14
2022-11-14T00:56:00,prt,22.36
2022-11-14T00:57:00,prt,25.63
2022-11-14T00:58:00,prt,25.00
2022-11-14T00:59:00,prt,26.44
2022-11-14T01:00:00,prt,25.35
2022-11-14T01:01:00,prt,26.71
2022-11-14T01:02:00,prt,25.96
2022-11-14T01:03:00,prt,24.49
2022-11-14T01:04:00,prt,24.69
2022-11-14T01:05:00,prt,24.62
2022-11-14T01:06:00,prt,25.62
2022-11-14T01:07:00,prt,26.57
2022-11-14T01:08:00,prt,26.84
2022-11-14T01:09:00,prt,27.05
2022-11-14T01:10:00,prt,27.96
2022-11-14T01:11:00,prt,26.61
2022-11-14T01:12:00,prt,21.79
2022-11-14T01:13:00,prt,21.47
2022-11-14T01:14:00,prt,21.78
2022-11-14T01:15:00,prt,22.06
2022-11-14T01:16:00,prt,21.83
2022-11-14T01:17:00,prt,21.95
2022-11-14T01:18:00,prt,21.80
2022-11-14T01:19:00,prt,21.07
2022-11-14T01:20:00,prt,20.78
2022-11-14T01:21:00,prt,20.38
2022-11-14T01:22:00,prt,21.55
2022-11-14T01:23:00,prt,22.01
2022-11-14T01:24:00,prt,24.87
2022-11-14T01:25:00,prt,24.92
2022-11-14T01:26:00,prt,24.32
2022-11-14T01:27:00,prt,23.52
2022-11-14T01:28:00,prt,24.93
2022-11-14T01:29:00,prt,25.08
2022-11-14T01:30:00,prt,22.40
2022-11-14T01:31:00,prt,25.27
2022-11-14T01:32:00,prt,26.04
2022-11-14T01:33:00,prt,22.35
2022-11-14T01:34:00,prt,22.67
2022-11-14T01:35:00,prt,22.50
2022-11-14T01:36:00,prt,23.02
2022-11-14T01:37:00,prt,27.16
2022-11-14T01:38:00,prt,28.05
2022-11-14T01:39:00,prt,24.85
2022-11-14T01:40:00,prt,25.29
2022-11-14T01:41:00,prt,25.05
2022-11-14T01:42:00,prt,24.16
2022-11-14T01:43:00,prt,23.95
2022-11-14T01:44:00,prt,24.76
2022-11-14T01:45:00,prt,23.80
2022-11-14T01:46:00,prt,21.77
2022-11-14T01:47:00,prt,22.83
2022-11-14T01:48:00,prt,23.90
2022-11-14T01:49:00,prt,20.20
2022-11-14T01:50:00,prt,19.69
2022-11-14T01:51:00,prt,23.60
2022-11-14T01:52:00,prt,24.78
2022-11-14T01:53:00,prt,26.10
2022-11-14T01:54:00,prt,25.58
2022-11-14T01:55:00,prt,24.61
2022-11-14T01:56:00,prt,24.20
2022-11-14T01:57:00,prt,20.13
2022-11-14T01:58:00,prt,20.16
2022-11-14T01:59:00,prt,20.26
2022-11-14T02:00:00,prt,19.98
2022-11-14T02:01:00,prt,20.08
2022-11-14T02:02:00,prt,21.32
2022-11-14T02:03:00,prt,21.13
2022-11-14T02:04:00,prt,24.12
2022-11-14T02:05:00,prt,22.61
2022-11-14T02:06:00,prt,23.38
2022-11-14T02:07:00,prt,23.07
2022-11-14T02:08:00,prt,22.96
2022-11-14T02:09:00,prt,23.52
2022-11-14T02:10:00,prt,22.67
2022-11-14T02:11:00,prt,22.11
2022-11-14T02:12:00,prt,23.90
2022-11-14T02:13:00,prt,24.65
2022-11-14T02:14:00,prt,23.38
2022-11-14T02:15:00,prt,23.67
2022-11-14T02:16:00,prt,23.88
2022-11-14T02:17:00,prt,24.46
2022-11-14T02:18:00,prt,23.55
2022-11-14T02:19:00,prt,26.92
2022-11-14T02:20:00,prt,26.02
2022-11-14T02:21:00,prt,24.87
2022-11-14T02:22:00,prt,24.96
2022-11-14T02:23:00,prt,26.48
2022-11-14T02:24:00,prt,25.08
2022-11-14T02:25:00,prt,25.31
2022-11-14T02:26:00,prt,23.93
2022-11-14T02:27:00,prt,23.23
2022-11-14T02:28:00,prt,22.42
2022-11-14T02:29:00,prt,24.16
2022-11-14T02:30:00,prt,23.90
2022-11-14T02:31:00,prt,31.71
2022-11-14T02:32:00,prt,29.36
2022-11-14T02:33:00,prt,23.30
2022-11-14T02:34:00,prt,22.72
2022-11-14T02:35:00,prt,22.10
2022-11-14T02:36:00,prt,22.18
2022-11-14T02:37:00,prt,21.41
2022-11-14T02:38:00,prt,23.93
2022-11-14T02:39:00,prt,23.85
2022-11-14T02:40:00,prt,23.04
2022-11-14T02:41:00,prt,23.29
2022-11-14T02:42:00,prt,22.65
2022-11-14T02:43:00,prt,23.12
2022-11-14T02:44:00,prt,22.42
2022-11-14T02:45:00,prt,22.24
2022-11-14T02:46:00,prt,27.89
2022-11-14T02:47:00,prt,26.64
2022-11-14T02:48:00,prt,27.49
2022-11-14T02:49:00,prt,27.59
2022-11-14T02:50:00,prt,28.73
2022-11-14T02:51:00,prt,26.15
2022-11-14T02:52:00,prt,24.62
2022-11-14T02:53:00,prt,24.61
2022-11-14T02:54:00,prt,23.75
2022-11-14T02:55:00,prt,24.14
2022-11-14T02:56:00,prt,22.25
2022-11-14T02:57:00,prt,22.34
2022-11-14T02:58:00,prt,25.64
2022-11-14T02:59:00,prt,24.04
2022-11-14T03:00:00,prt,23.47
2022-11-14T03:01:00,prt,24.73
2022-11-14T03:02:00,prt,21.96
2022-11-14T03:03:00,prt,20.84
2022-11-14T03:04:00,prt,21.47
2022-11-14T03:05:00,prt,21.41
2022-11-14T03:06:00,prt,21.69
2022-11-14T03:07:00,prt,23.69
2022-11-14T03:08:00,prt,23.50
2022-11-14T03:09:00,prt,24.52
2022-11-14T03:10:00,prt,25.12
2022-11-14T03:11:00,prt,24.74
2022-11-14T03:12:00,prt,24.14
2022-11-14T03:13:00,prt,28.06
2022-11-14T03:14:00,prt,27.29
2022-11-14T03:15:00,prt,27.05
2022-11-14T03:16:00,prt,26.99
2022-11-14T03:17:00,prt,26.58
2022-11-14T03:18:00,prt,22.80
2022-11-14T03:19:00,prt,21.58
2022-11-14T03:20:00,prt,21.73
2022-11-14T03:21:00,prt,22.14
2022-11-14T03:22:00,prt,22.39
2022-11-14T03:23:00,prt,21.67
2022-11-14T03:24:00,prt,23.72
2022-11-14T03:25:00,prt,26.05
2022-11-14T03:26:00,prt,25.91
2022-11-14T03:27:00,prt,25.13
2022-11-14T03:28:00,prt,23.43
2022-11-14T03:29:00,prt,23.58
2022-11-14T03:30:00,prt,22.92
2022-11-14T03:31:00,prt,22.44
2022-11-14T03:32:00,prt,21.94
2022-11-14T03:33:00,prt,25.68
2022-11-14T03:34:00,prt,21.50
2022-11-14T03:35:00,prt,23.36
2022-11-14T03:36:00,prt,24.66
2022-11-14T03:37:00,prt,21.92
2022-11-14T03:38:00,prt,21.72
2022-11-14T03:39:00,prt,22.07
2022-11-14T03:40:00,prt,21.55
2022-11-14T03:41:00,prt,25.43
2022-11-14T03:42:00,prt,26.28
2022-11-14T03:43:00,prt,27.76
2022-11-14T03:44:00,prt,29.58
2022-11-14T03:45:00,prt,32.79
2022-11-14T03:46:00,prt,26.46
2022-11-14T03:47:00,prt,25.03
2022-11-14T03:48:00,prt,26.88
2022-11-14T03:49:00,prt,27.19
2022-11-14T03:50:00,prt,23.91
2022-11-14T03:51:00,prt,27.63
2022-11-14T03:52:00,prt,25.72
2022-11-14T03:53:00,prt,23.18
2022-11-14T03:54:00,prt,22.93
2022-11-14T03:55:00,prt,19.97
2022-11-14T03:56:00,prt,20.24
2022-11-14T03:57:00,prt,22.23
2022-11-14T03:58:00,prt,23.25
2022-11-14T03:59:00,prt,22.79
2022-11-14T04:00:00,prt,23.89
2022-11-14T04:01:00,prt,27.87
2022-11-14T04:02:00,prt,30.83
2022-11-14T04:03:00,prt,29.82
2022-11-14T04:04:00,prt,30.16
2022-11-14T04:05:00,prt,28.96
2022-11-14T04:06:00,prt,27.87
2022-11-14T04:07:00,prt,26.13
2022-11-14T04:08:00,prt,30.13
2022-11-14T04:09:00,prt,30.33
2022-11-14T04:10:00,prt,30.46
2022-11-14T04:11:00,prt,30.43
2022-11-14T04:12:00,prt,30.00
2022-11-14T04:13:00,prt,28.98
2022-11-14T04:14:00,prt,28.66
2022-11-14T04:15:00,prt,29.21
2022-11-14T04:16:00,prt,28.39
2022-11-14T04:17:00,prt,28.01
2022-11-14T04:18:00,prt,27.80
2022-11-14T04:19:00,prt,31.25
2022-11-14T04:20:00,prt,34.73
2022-11-14T04:21:00,prt,33.95
2022-11-14T04:22:00,prt,30.30
2022-11-14T04:23:00,prt,29.80
2022-11-14T04:24:00,prt,30.18
2022-11-14T04:25:00,prt,30.58
2022-11-14T04:26:00,prt,30.24
2022-11-14T04:27:00,prt,30.12
2022-11-14T04:28:00,prt,29.82
2022-11-14T04:29:00,prt,35.16
2022-11-14T04:30:00,prt,34.57
2022-11-14T04:31:00,prt,31.05
2022-11-14T04:32:00,prt,32.19
2022-11-14T04:33:00,prt,28.36
2022-11-14T04:34:00,prt,28.15
2022-11-14T04:35:00,prt,31.59
2022-11-14T04:36:00,prt,32.05
2022-11-14T04:37:00,prt,32.21
2022-11-14T04:38:00,prt,30.33
2022-11-14T04:39:00,prt,30.48
2022-11-14T04:40:00,prt,29.42
2022-11-14T04:41:00,prt,30.99
2022-11-14T04:42:00,prt,30.83
2022-11-14T04:43:00,prt,32.85
2022-11-14T04:44:00,prt,31.08
2022-11-14T04:45:00,prt,29.58
2022-11-14T04:46:00,prt,39.45
2022-11-14T04:47:00,prt,37.94
2022-11-14T04:48:00,prt,37.67
2022-11-14T04:49:00,prt,31.88
2022-11-14T04:50:00,prt,30.51
2022-11-14T04:51:00,prt,30.88
2022-11-14T04:52:00,prt,31.91
2022-11-14T04:53:00,prt,29.98
2022-11-14T04:54:00,prt,30.93
2022-11-14T04:55:00,prt,30.78
2022-11-14T04:56:00,prt,32.26
2022-11-14T04:57:00,prt,31.13
2022-11-14T04:58:00,prt,46.73
2022-11-14T04:59:00,prt,38.50
2022-11-14T05:00:00,prt,45.84
2022-11-14T05:01:00,prt,47.09
2022-11-14T05:02:00,prt,53.52
2022-11-14T05:03:00,prt,50.95
2022-11-14T05:04:00,prt,45.62
2022-11-14T05:05:00,prt,45.06
2022-11-14T05:06:00,prt,43.93
2022-11-14T05:07:00,prt,39.10
2022-11-14T05:08:00,prt,41.38
2022-11-14T05:09:00,prt,44.13
2022-11-14T05:10:00,prt,43.99
2022-11-14T05:11:00,prt,43.35
2022-11-14T05:12:00,prt,39.23
2022-11-14T05:13:00,prt,38.84
2022-11-14T05:14:00,prt,37.45
2022-11-14T05:15:00,prt,36.88
2022-11-14T05:16:00,prt,36.81
2022-11-14T05:17:00,prt,37.98
2022-11-14T05:18:00,prt,37.10
2022-11-14T05:19:00,prt,41.87
2022-11-14T05:20:00,prt,44.26
2022-11-14T05:21:00,prt,44.27
2022-11-14T05:22:00,prt,44.70
2022-11-14T05:23:00,prt,45.25
2022-11-14T05:24:00,prt,39.16
2022-11-14T05:25:00,prt,40.38
2022-11-14T05:26:00,prt,40.94
2022-11-14T05:27:00,prt,46.16
2022-11-14T05:28:00,prt,52.27
2022-11-14T05:29:00,prt,46.90
2022-11-14T05:30:00,prt,42.83
2022-11-14T05:31:00,prt,43.60
2022-11-14T05:32:00,prt,41.46
2022-11-14T05:33:00,prt,41.59
2022-11-14T05:34:00,prt,41.32
2022-11-14T05:35:00,prt,41.92
2022-11-14T05:36:00,prt,41.16
2022-11-14T05:37:00,prt,39.55
2022-11-14T05:38:00,prt,39.56
2022-11-14T05:39:00,prt,39.15
2022-11-14T05:40:00,prt,38.12
2022-11-14T05:41:00,prt,38.39
2022-11-14T05:42:00,prt,43.84
2022-11-14T05:43:00,prt,50.08
2022-11-14T05:44:00,prt,49.02
2022-11-14T05:45:00,prt,50.11
2022-11-14T05:46:00,prt,51.06
2022-11-14T05:47:00,prt,53.38
2022-11-14T05:48:00,prt,52.08
2022-11-14T05:49:00,prt,50.34
2022-11-14T05:50:00,prt,54.23
2022-11-14T05:51:00,prt,56.00
2022-11-14T05:52:00,prt,61.89
2022-11-14T05:53:00,prt,61.51
2022-11-14T05:54:00,prt,62.23
2022-11-14T05:55:00,prt,66.81
2022-11-14T05:56:00,prt,70.10
2022-11-14T05:57:00,prt,67.98
2022-11-14T05:58:00,prt,68.78
2022-11-14T05:59:00,prt,70.98
2022-11-14T06:00:00,prt,74.51
2022-11-14T06:01:00,prt,74.14
2022-11-14T06:02:00,prt,72.56
2022-11-14T06:03:00,prt,64.01
2022-11-14T06:04:00,prt,66.17
2022-11-14T06:05:00,prt,63.65
2022-11-14T06:06:00,prt,59.98
2022-11-14T06:07:00,prt,61.33
2022-11-14T06:08:00,prt,61.66
2022-11-14T06:09:00,prt,61.06
2022-11-14T06:10:00,prt,65.61
2022-11-14T06:11:00,prt,64.76
2022-11-14T06:12:00,prt,65.34
2022-11-14T06:13:00,prt,64.00
2022-11-14T06:14:00,prt,65.52
2022-11-14T06:15:00,prt,62.55
2022-11-14T06:16:00,prt,57.57
2022-11-14T06:17:00,prt,56.71
2022-11-14T06:18:00,prt,58.99
2022-11-14T06:19:00,prt,59.39
2022-11-14T06:20:00,prt,57.73
2022-11-14T06:21:00,prt,62.49
2022-11-14T06:22:00,prt,62.83
2022-11-14T06:23:00,prt,66.09
2022-11-14T06:24:00,prt,68.90
2022-11-14T06:25:00,prt,68.73
2022-11-14T06:26:00,prt,67.85
2022-11-14T06:27:00,prt,63.53
2022-11-14T06:28:00,prt,63.86
2022-11-14T06:29:00,prt,67.68
2022-11-14T06:30:00,prt,66.28
2022-11-14T06:31:00,prt,69.11
2022-11-14T06:32:00,prt,62.63
2022-11-14T06:33:00,prt,63.80
2022-11-14T06:34:00,prt,69.30
2022-11-14T06:35:00,prt,64.73
2022-11-14T06:36:00,prt,63.24
2022-11-14T06:37:00,prt,70.97
2022-11-14T06:38:00,prt,73.51
2022-11-14T06:39:00,prt,68.84
2022-11-14T06:40:00,prt,63.79
2022-11-14T06:41:00,prt,63.25
2022-11-14T06:42:00,prt,62.38
2022-11-14T06:43:00,prt,57.45
2022-11-14T06:44:00,prt,60.90
2022-11-14T06:45:00,prt,63.62
2022-11-14T06:46:00,prt,62.34
2022-11-14T06:47:00,prt,69.83
2022-11-14T06:48:00,prt,62.91
2022-11-14T06:49:00,prt,58.62
2022-11-14T06:50:00,prt,59.52
2022-11-14T06:51:00,prt,60.46
2022-11-14T06:52:00,prt,64.65
2022-11-14T06:53:00,prt,63.38
2022-11-14T06:54:00,prt,60.40
2022-11-14T06:55:00,prt,60.91
2022-11-14T06:56:00,prt,59.63
2022-11-14T06:57:00,prt,56.14
2022-11-14T06:58:00,prt,61.63
2022-11-14T06:59:00,prt,62.90
2022-11-14T07:00:00,prt,61.37
2022-11-14T07:01:00,prt,67.89
2022-11-14T07:02:00,prt,86.08
2022-11-14T07:03:00,prt,71.03
2022-11-14T07:04:00,prt,77.68
2022-11-14T07:05:00,prt,68.62
2022-11-14T07:06:00,prt,71.94
2022-11-14T07:07:00,prt,70.17
2022-11-14T07:08:00,prt,76.45
2022-11-14T07:09:00,prt,79.20
2022-11-14T07:10:00,prt,78.98
2022-11-14T07:11:00,prt,78.01
2022-11-14T07:12:00,prt,79.51
2022-11-14T07:13:00,prt,77.84
2022-11-14T07:14:00,prt,79.68
2022-11-14T07:15:00,prt,82.04
2022-11-14T07:16:00,prt,87.97
2022-11-14T07:17:00,prt,87.33
2022-11-14T07:18:00,prt,87.00
2022-11-14T07:19:00,prt,87.65
2022-11-14T07:20:00,prt,87.08
2022-11-14T07:21:00,prt,83.84
2022-11-14T07:22:00,prt,77.18
2022-11-14T07:23:00,prt,87.13
2022-11-14T07:24:00,prt,89.38
2022-11-14T07:25:00,prt,90.64
2022-11-14T07:26:00,prt,104.83
2022-11-14T07:27:00,prt,97.75
2022-11-14T07:28:00,prt,85.85
2022-11-14T07:29:00,prt,81.70
2022-11-14T07:30:00,prt,77.55
2022-11-14T07:31:00,prt,71.58
2022-11-14T07:32:00,prt,75.79
2022-11-14T07:33:00,prt,86.19
2022-11-14T07:34:00,prt,84.07
2022-11-14T07:35:00,prt,77.50
2022-11-14T07:36:00,prt,73.76
2022-11-14T07:37:00,prt,80.71
2022-11-14T07:38:00,prt,81.12
2022-11-14T07:39:00,prt,102.89
2022-11-14T07:40:00,prt,80.29
2022-11-14T07:41:00,prt,74.24
2022-11-14T07:42:00,prt,82.10
2022-11-14T07:43:00,prt,80.43
2022-11-14T07:44:00,prt,81.18
2022-11-14T07:45:00,prt,85.11
2022-11-14T07:46:00,prt,86.70
2022-11-14T07:47:00,prt,82.90
2022-11-14T07:48:00,prt,72.64
2022-11-14T07:49:00,prt,72.25
2022-11-14T07:50:00,prt,72.57
2022-11-14T07:51:00,prt,80.69
2022-11-14T07:52:00,prt,86.87
2022-11-14T07:53:00,prt,87.34
2022-11-14T07:54:00,prt,82.16
2022-11-14T07:55:00,prt,81.79
2022-11-14T07:56:00,prt,80.88
2022-11-14T07:57:00,prt,74.37
2022-11-14T07:58:00,prt,73.36
2022-11-14T07:59:00,prt,85.62
2022-11-14T08:00:00,prt,84.47
2022-11-14T08:01:00,prt,75.17
2022-11-14T08:02:00,prt,76.21
2022-11-14T08:03:00,prt,81.80
2022-11-14T08:04:00,prt,78.52
2022-11-14T08:05:00,prt,73.38
2022-11-14T08:06:00,prt,77.44
2022-11-14T08:07:00,prt,80.48
2022-11-14T08:08:00,prt,79.77
2022-11-14T08:09:00,prt,78.28
2022-11-14T08:10:00,prt,80.26
2022-11-14T08:11:00,prt,79.87
2022-11-14T08:12:00,prt,80.83
2022-11-14T08:13:00,prt,85.87
2022-11-14T08:14:00,prt,90.09
2022-11-14T08:15:00,prt,76.69
2022-11-14T08:16:00,prt,82.37
2022-11-14T08:17:00,prt,80.46
2022-11-14T08:18:00,prt,79.05
2022-11-14T08:19:00,prt,78.84
2022-11-14T08:20:00,prt,77.58
2022-11-14T08:21:00,prt,83.13
2022-11-14T08:22:00,prt,85.76
2022-11-14T08:23:00,prt,82.78
2022-11-14T08:24:00,prt,84.23
2022-11-14T08:25:00,prt,80.27
2022-11-14T08:26:00,prt,81.10
2022-11-14T08:27:00,prt,83.98
2022-11-14T08:28:00,prt,90.89
2022-11-14T08:29:00,prt,87.98
2022-11-14T08:30:00,prt,81.98
2022-11-14T08:31:00,prt,82.26
2022-11-14T08:32:00,prt,94.58
2022-11-14T08:33:00,prt,94.89
2022-11-14T08:34:00,prt,92.01
2022-11-14T08:35:00,prt,93.74
2022-11-14T08:36:00,prt,91.04
2022-11-14T08:37:00,prt,86.39
2022-11-14T08:38:00,prt,82.50
2022-11-14T08:39:00,prt,86.42
2022-11-14T08:40:00,prt,85.27
2022-11-14T08:41:00,prt,82.53
2022-11-14T08:42:00,prt,81.90
2022-11-14T08:43:00,prt,87.15
2022-11-14T08:44:00,prt,88.26
2022-11-14T08:45:00,prt,99.46
2022-11-14T08:46:00,prt,98.57
2022-11-14T08:47:00,prt,89.24
2022-11-14T08:48:00,prt,85.40
2022-11-14T08:49:00,prt,88.69
2022-11-14T08:50:00,prt,91.38
2022-11-14T08:51:00,prt,88.41
2022-11-14T08:52:00,prt,84.48
2022-11-14T08:53:00,prt,87.76
2022-11-14T08:54:00,prt,89.02
2022-11-14T08:55:00,prt,83.67
2022-11-14T08:56:00,prt,87.35
2022-11-14T08:57:00,prt,93.19
2022-11-14T08:58:00,prt,90.24
2022-11-14T08:59:00,prt,98.81
2022-11-14T09:00:00,prt,98.26
2022-11-14T09:01:00,prt,90.51
2022-11-14T09:02:00,prt,93.47
2022-11-14T09:03:00,prt,91.84
2022-11-14T09:04:00,prt,91.17
2022-11-14T09:05:00,prt,99.12
2022-11-14T09:06:00,prt,104.82
2022-11-14T09:07:00,prt,95.82
2022-11-14T09:08:00,prt,95.49
2022-11-14T09:09:00,prt,100.99
2022-11-14T09:10:00,prt,107.97
2022-11-14T09:11:00,prt,100.21
2022-11-14T09:12:00,prt,95.67
2022-11-14T09:13:00,prt,107.47
2022-11-14T09:14:00,prt,100.63
2022-11-14T09:15:00,prt,99.93
2022-11-14T09:16:00,prt,96.39
2022-11-14T09:17:00,prt,95.56
2022-11-14T09:18:00,prt,92.38
2022-11-14T09:19:00,prt,110.80
2022-11-14T09:20:00,prt,87.92
2022-11-14T09:21:00,prt,93.77
2022-11-14T09:22:00,prt,86.56
2022-11-14T09:23:00,prt,84.09
2022-11-14T09:24:00,prt,82.03
2022-11-14T09:25:00,prt,84.97
2022-11-14T09:26:00,prt,93.72
2022-11-14T09:27:00,prt,92.78
2022-11-14T09:28:00,prt,89.34
2022-11-14T09:29:00,prt,90.12
2022-11-14T09:30:00,prt,88.18
2022-11-14T09:31:00,prt,94.46
2022-11-14T09:32:00,prt,91.73
2022-11-14T09:33:00,prt,88.94
2022-11-14T09:34:00,prt,89.47
2022-11-14T09:35:00,prt,94.95
2022-11-14T09:36:00,prt,95.11
2022-11-14T09:37:00,prt,91.67
2022-11-14T09:38:00,prt,102.27
2022-11-14T09:39:00,prt,92.50
2022-11-14T09:40:00,prt,97.59
2022-11-14T09:41:00,prt,94.61
2022-11-14T09:42:00,prt,91.22
2022-11-14T09:43:00,prt,86.90
2022-11-14T09:44:00,prt,84.94
2022-11-14T09:45:00,prt,85.77
2022-11-14T09:46:00,prt,87.43
2022-11-14T09:47:00,prt,84.90
2022-11-14T09:48:00,prt,86.69
2022-11-14T09:49:00,prt,90.09
2022-11-14T09:50:00,prt,86.12
2022-11-14T09:51:00,prt,83.53
2022-11-14T09:52:00,prt,87.91
2022-11-14T09:53:00,prt,87.10
2022-11-14T09:54:00,prt,100.29
2022-11-14T09:55:00,prt,87.60
2022-11-14T09:56:00,prt,90.28
2022-11-14T09:57:00,prt,89.74
2022-11-14T09:58:00,prt,96.42
2022-11-14T09:59:00,prt,96.87
2022-11-14T10:00:00,prt,97.27
2022-11-14T10:01:00,prt,102.62
2022-11-14T10:02:00,prt,92.04
2022-11-14T10:03:00,prt,94.31
2022-11-14T10:04:00,prt,88.38
2022-11-14T10:05:00,prt,82.38
2022-11-14T10:06:00,prt,84.84
2022-11-14T10:07:00,prt,94.25
2022-11-14T10:08:00,prt,88.33
2022-11-14T10:09:00,prt,90.03
2022-11-14T10:10:00,prt,93.71
2022-11-14T10:11:00,prt,91.23
2022-11-14T10:12:00,prt,89.72
2022-11-14T10:13:00,prt,89.28
2022-11-14T10:14:00,prt,88.93
2022-11-14T10:15:00,prt,92.77
2022-11-14T10:16:00,prt,88.95
2022-11-14T10:17:00,prt,89.49
2022-11-14T10:18:00,prt,85.22
2022-11-14T10:19:00,prt,84.88
2022-11-14T10:20:00,prt,83.55
2022-11-14T10:21:00,prt,96.29
2022-11-14T10:22:00,prt,105.67
2022-11-14T10:23:00,prt,100.07
2022-11-14T10:24:00,prt,91.44
2022-11-14T10:25:00,prt,85.47
2022-11-14T10:26:00,prt,93.56
2022-11-14T10:27:00,prt,103.12
2022-11-14T10:28:00,prt,99.23
2022-11-14T10:29:00,prt,92.96
2022-11-14T10:30:00,prt,98.27
2022-11-14T10:31:00,prt,91.28
2022-11-14T10:32:00,prt,89.41
2022-11-14T10:33:00,prt,95.60
2022-11-14T10:34:00,prt,94.26
2022-11-14T10:35:00,prt,101.04
2022-11-14T10:36:00,prt,85.98
2022-11-14T10:37:00,prt,88.34
2022-11-14T10:38:00,prt,91.78
2022-11-14T10:39:00,prt,94.82
2022-11-14T10:40:00,prt,86.67
2022-11-14T10:41:00,prt,97.99
2022-11-14T10:42:00,prt,95.21
2022-11-14T10:43:00,prt,94.70
2022-11-14T10:44:00,prt,92.04
2022-11-14T10:45:00,prt,95.44
2022-11-14T10:46:00,prt,89.49
2022-11-14T10:47:00,prt,85.44
2022-11-14T10:48:00,prt,95.37
2022-11-14T10:49:00,prt,101.72
2022-11-14T10:50:00,prt,101.60
2022-11-14T10:51:00,prt,96.59
2022-11-14T10:52:00,prt,93.96
2022-11-14T10:53:00,prt,93.81
2022-11-14T10:54:00,prt,92.63
2022-11-14T10:55:00,prt,98.96
2022-11-14T10:56:00,prt,92.63
2022-11-14T10:57:00,prt,97.45
2022-11-14T10:58:00,prt,98.71
2022-11-14T10:59:00,prt,93.65
2022-11-14T11:00:00,prt,94.26
2022-11-14T11:01:00,prt,114.28
2022-11-14T11:02:00,prt,109.28
2022-11-14T11:03:00,prt,98.43
2022-11-14T11:04:00,prt,94.32
2022-11-14T11:05:00,prt,93.11
2022-11-14T11:06:00,prt,94.27
2022-11-14T11:07:00,prt,99.32
2022-11-14T11:08:00,prt,94.88
2022-11-14T11:09:00,prt,96.82
2022-11-14T11:10:00,prt,99.62
2022-11-14T11:11:00,prt,106.09
2022-11-14T11:12:00,prt,96.95
2022-11-14T11:13:00,prt,99.75
2022-11-14T11:14:00,prt,96.60
2022-11-14T11:15:00,prt,105.47
2022-11-14T11:16:00,prt,104.64
2022-11-14T11:17:00,prt,105.94
2022-11-14T11:18:00,prt,103.99
2022-11-14T11:19:00,prt,101.49
2022-11-14T11:20:00,prt,96.61
2022-11-14T11:21:00,prt,89.04
2022-11-14T11:22:00,prt,111.52
2022-11-14T11:23:00,prt,98.31
2022-11-14T11:24:00,prt,97.68
2022-11-14T11:25:00,prt,90.65
2022-11-14T11:26:00,prt,88.61
2022-11-14T11:27:00,prt,101.49
2022-11-14T11:28:00,prt,81.06
2022-11-14T11:29:00,prt,98.48
2022-11-14T11:30:00,prt,100.06
2022-11-14T11:31:00,prt,92.05
2022-11-14T11:32:00,prt,98.88
2022-11-14T11:33:00,prt,96.25
2022-11-14T11:34:00,prt,91.99
2022-11-14T11:35:00,prt,105.66
2022-11-14T11:36:00,prt,101.75
2022-11-14T11:37:00,prt,94.59
2022-11-14T11:38:00,prt,105.47
2022-11-14T11:39:00,prt,99.71
2022-11-14T11:40:00,prt,103.10
2022-11-14T11:41:00,prt,90.93
2022-11-14T11:42:00,prt,95.88
2022-11-14T11:43:00,prt,87.80
2022-11-14T11:44:00,prt,91.00
2022-11-14T11:45:00,prt,91.09
2022-11-14T11:46:00,prt,91.70
2022-11-14T11:47:00,prt,93.91
2022-11-14T11:48:00,prt,98.30
2022-11-14T11:49:00,prt,92.10
2022-11-14T11:50:00,prt,94.69
2022-11-14T11:51:00,prt,92.20
2022-11-14T11:52:00,prt,101.25
2022-11-14T11:53:00,prt,106.07
2022-11-14T11:54:00,prt,109.79
2022-11-14T11:55:00,prt,93.95
2022-11-14T11:56:00,prt,98.75
2022-11-14T11:57:00,prt,98.93
2022-11-14T11:58:00,prt,106.06
2022-11-14T11:59:00,prt,95.34
2022-11-14T12:00:00,prt,94.30
2022-11-14T12:01:00,prt,92.62
2022-11-14T12:02:00,prt,94.51
2022-11-14T12:03:00,prt,91.24
2022-11-14T12:04:00,prt,91.30
2022-11-14T12:05:00,prt,87.34
2022-11-14T12:06:00,prt,88.26
2022-11-14T12:07:00,prt,95.88
2022-11-14T12:08:00,prt,91.62
2022-11-14T12:09:00,prt,97.38
2022-11-14T12:10:00,prt,98.08
2022-11-14T12:11:00,prt,97.36
2022-11-14T12:12:00,prt,98.08
2022-11-14T12:13:00,prt,101.59
2022-11-14T12:14:00,prt,90.15
2022-11-14T12:15:00,prt,86.07
2022-11-14T12:16:00,prt,90.46
2022-11-14T12:17:00,prt,88.02
2022-11-14T12:18:00,prt,97.05
2022-11-14T12:19:00,prt,90.48
2022-11-14T12:20:00,prt,89.02
2022-11-14T12:21:00,prt,89.39
2022-11-14T12:22:00,prt,85.43
2022-11-14T12:23:00,prt,89.78
2022-11-14T12:24:00,prt,95.19
2022-11-14T12:25:00,prt,105.48
2022-11-14T12:26:00,prt,100.91
2022-11-14T12:27:00,prt,99.72
2022-11-14T12:28:00,prt,99.23
2022-11-14T12:29:00,prt,89.98
2022-11-14T12:30:00,prt,93.72
2022-11-14T12:31:00,prt,94.67
2022-11-14T12:32:00,prt,89.89
2022-11-14T12:33:00,prt,101.34
2022-11-14T12:34:00,prt,92.32
2022-11-14T12:35:00,prt,96.42
2022-11-14T12:36:00,prt,105.31
2022-11-14T12:37:00,prt,89.09
2022-11-14T12:38:00,prt,89.18
2022-11-14T12:39:00,prt,88.41
2022-11-14T12:40:00,prt,104.32
2022-11-14T12:41:00,prt,91.44
2022-11-14T12:42:00,prt,102.92
2022-11-14T12:43:00,prt,99.17
2022-11-14T12:44:00,prt,106.81
2022-11-14T12:45:00,prt,109.18
2022-11-14T12:46:00,prt,105.61
2022-11-14T12:47:00,prt,101.65
2022-11-14T12:48:00,prt,95.27
2022-11-14T12:49:00,prt,93.32
2022-11-14T12:50:00,prt,91.95
2022-11-14T12:51:00,prt,88.72
2022-11-14T12:52:00,prt,87.37
2022-11-14T12:53:00,prt,116.60
2022-11-14T12:54:00,prt,99.85
2022-11-14T12:55:00,prt,89.68
2022-11-14T12:56:00,prt,90.85
2022-11-14T12:57:00,prt,91.29
2022-11-14T12:58:00,prt,96.00
2022-11-14T12:59:00,prt,93.50
2022-11-14T13:00:00,prt,93.02
2022-11-14T13:01:00,prt,101.38
2022-11-14T13:02:00,prt,99.18
2022-11-14T13:03:00,prt,90.56
2022-11-14T13:04:00,prt,100.67
2022-11-14T13:05:00,prt,96.83
2022-11-14T13:06:00,prt,100.08
2022-11-14T13:07:00,prt,107.56
2022-11-14T13:08:00,prt,103.99
2022-11-14T13:09:00,prt,105.16
2022-11-14T13:10:00,prt,105.27
2022-11-14T13:11:00,prt,97.86
2022-11-14T13:12:00,prt,92.98
2022-11-14T13:13:00,prt,105.62
2022-11-14T13:14:00,prt,110.99
2022-11-14T13:15:00,prt,107.38
2022-11-14T13:16:00,prt,102.07